User: anonymous   Login
Location: Newark
(45.2862°N, 9.8850°E)
Time: 14:12:50
(UTC+00:00)
Language:

N. Korean satellite - Orbit

View from above orbital plane
View from above orbital plane
View from above satellite
View from above satellite

Ground track
Ground track

The orbit data is extracted from the following two-line orbital elements,

1 39026U 12072A   20017.49151350 +.00000644 +00000-0 +25498-4 0  9996
2 39026 097.2174 018.8786 0039223 065.7424 294.7906 15.28284944394030
Epoch (UTC): 17 January 2020 11:47:46
Eccentricity: 0.0039223
inclination: 97.2174°
perigee height: 454 km
apogee height: 508 km
right ascension of ascending node: 18.8786°
argument of perigee: 65.7424°
revolutions per day: 15.28284944
mean anomaly at epoch: 294.7906°
orbit number at epoch: 39403

The dashed part of the orbit path shows where the satellite is in the earth's shadow,  

DLR